Tracking 35331 objects as of 14-Sep-2026
HD Live streaming from Space Station
objects crossing your sky now

SPACEBEE-111


SPACEBEE-111 is no longer on orbit


NORAD ID: 48904
Int'l Code: 2021-059AB
Launch date: June 30, 2021
Source: United States (US)
Launch site: AIR FORCE EASTERN TEST RANGE (AFETR)
Decay date: 2024-02-17
Your satellite tracking list
Your tracking list is empty




NASA's NSSDC Master Catalog

Two Line Element Set (TLE):
1 48904U 21059AB  24046.68846120  .10432699  26227-5  11855-2 0  9993
2 48904  97.5898 204.4928 0011508 296.8182  63.1938 16.36817304147251
Source of the keplerian elements: AFSPC